TimeEST,TemperatureF,Dew PointF,Humidity,Sea Level PressureIn,VisibilityMPH,Wind Direction,Wind SpeedMPH,Gust SpeedMPH,PrecipitationIn,Events,Conditions,WindDirDegrees,DateUTC
12:53 AM,68.0,50.0,52,30.22,10.0,NE,10.4,-,N/A,,Scattered Clouds,40,2013-01-23 05:53:00
1:53 AM,68.0,50.0,52,30.20,10.0,NE,8.1,-,N/A,,Mostly Cloudy,40,2013-01-23 06:53:00
2:53 AM,68.0,48.9,50,30.21,10.0,NNE,6.9,-,N/A,,Mostly Cloudy,30,2013-01-23 07:53:00
3:53 AM,68.0,50.0,52,30.21,10.0,NNE,6.9,-,N/A,,Mostly Cloudy,30,2013-01-23 08:53:00
4:53 AM,62.1,54.0,75,30.21,10.0,NW,6.9,-,N/A,,Mostly Cloudy,310,2013-01-23 09:53:00
5:53 AM,61.0,54.0,78,30.22,10.0,NNW,8.1,-,N/A,,Mostly Cloudy,330,2013-01-23 10:53:00
6:53 AM,62.1,53.1,72,30.24,10.0,North,6.9,-,N/A,,Mostly Cloudy,360,2013-01-23 11:53:00
7:53 AM,61.0,53.1,75,30.27,10.0,NNW,10.4,-,N/A,,Mostly Cloudy,330,2013-01-23 12:53:00
8:53 AM,64.0,54.0,70,30.28,10.0,North,12.7,-,N/A,,Mostly Cloudy,350,2013-01-23 13:53:00
9:53 AM,64.9,54.0,68,30.30,10.0,NNW,11.5,-,N/A,,Mostly Cloudy,340,2013-01-23 14:53:00
10:53 AM,70.0,55.9,61,30.30,10.0,North,10.4,-,N/A,,Mostly Cloudy,360,2013-01-23 15:53:00
11:53 AM,71.1,57.0,61,30.28,10.0,North,12.7,18.4,N/A,,Mostly Cloudy,10,2013-01-23 16:53:00
12:53 PM,75.0,53.1,46,30.26,10.0,NE,8.1,18.4,N/A,,Mostly Cloudy,40,2013-01-23 17:53:00
1:53 PM,72.0,52.0,49,30.24,10.0,ENE,11.5,-,N/A,,Mostly Cloudy,60,2013-01-23 18:53:00
2:53 PM,72.0,52.0,49,30.23,10.0,ENE,9.2,-,N/A,,Mostly Cloudy,70,2013-01-23 19:53:00
3:53 PM,73.0,51.1,46,30.24,10.0,ENE,8.1,-,N/A,,Mostly Cloudy,60,2013-01-23 20:53:00
4:53 PM,72.0,52.0,49,30.25,10.0,NNE,10.4,-,N/A,,Mostly Cloudy,30,2013-01-23 21:53:00
5:53 PM,69.1,55.0,61,30.25,10.0,North,9.2,-,N/A,,Scattered Clouds,360,2013-01-23 22:53:00
6:53 PM,66.0,55.9,70,30.25,10.0,NNW,10.4,-,N/A,,Partly Cloudy,340,2013-01-23 23:53:00
7:53 PM,64.9,55.0,70,30.27,10.0,NNW,10.4,-,N/A,,Partly Cloudy,330,2013-01-24 00:53:00
8:53 PM,63.0,54.0,72,30.28,10.0,NNW,9.2,-,N/A,,Partly Cloudy,340,2013-01-24 01:53:00
9:53 PM,62.1,54.0,75,30.28,10.0,NNW,6.9,-,N/A,,Partly Cloudy,330,2013-01-24 02:53:00
10:53 PM,60.1,53.1,78,30.27,10.0,NNW,6.9,-,N/A,,Partly Cloudy,330,2013-01-24 03:53:00
11:53 PM,59.0,53.1,81,30.26,10.0,NW,5.8,-,N/A,,Partly Cloudy,320,2013-01-24 04:53:00